PBO Station Position Time Series. Reference Frame : NAM14
Format Version,1.1.0
4-character ID,P642
Station name,McGeeMountCS2006
Begin Date, 2006-11-20
End Date, 2019-10-07
Release Date, 2019-10-08
Reference position, 37.5913668403 North Latitude, -118.8166707314 East Longitude, 2667.38566 meters elevation,
Date, North (mm), East (mm), Vertical (mm), North Std. Deviation (mm), East Std. Deviation (mm),              Vertical Std. Deviation (mm), Quality,
2006-11-20,0.00, 0.00, 0.00, 2.11, 1.71, 7.71, repro,
2006-11-21,1.06, -2.08, -6.19, 2.08, 1.70, 7.61, repro,
2006-11-22,-2.38, -0.49, -6.72, 2.06, 1.65, 7.51, repro,
2006-11-23,1.44, -0.92, -10.78, 2.10, 1.69, 7.75, repro,
2006-11-24,1.58, -1.51, -3.49, 2.18, 1.72, 7.92, repro,
2006-11-25,2.59, -1.54, 0.58, 2.12, 1.67, 7.70, repro,
2006-11-26,1.34, -1.21, -2.84, 2.21, 1.84, 8.14, repro,
2006-11-27,-0.59, -0.20, -0.82, 2.09, 1.67, 7.63, repro,
2006-11-28,0.42, -1.53, 10.43, 2.09, 1.72, 7.70, repro,
2006-11-29,1.67, -0.58, 1.83, 2.12, 1.71, 7.81, repro,
2006-11-30,0.97, -1.24, -7.98, 2.09, 1.66, 7.62, repro,
2006-12-01,2.11, -0.30, -10.84, 2.13, 1.72, 7.75, repro,
2006-12-02,1.55, -2.14, -9.20, 2.10, 1.72, 7.68, repro,
2006-12-03,1.62, -0.91, -4.59, 2.06, 1.67, 7.61, repro,
2006-12-04,2.05, -1.62, -9.32, 2.12, 1.67, 7.71, repro,
2006-12-05,1.09, -1.74, -8.15, 2.18, 1.87, 8.18, repro,
2006-12-06,2.52, -1.81, -5.22, 2.17, 1.82, 8.07, repro,
2006-12-07,1.04, -1.46, -4.49, 2.14, 1.80, 7.86, repro,
2006-12-09,-0.75, -2.06, 4.98, 2.18, 1.82, 7.99, repro,
2006-12-10,0.71, -3.10, 1.78, 2.17, 1.76, 7.95, repro,
2006-12-11,2.42, -2.90, 0.29, 2.10, 1.69, 7.66, repro,
2006-12-12,1.97, -1.92, -1.71, 2.21, 1.85, 8.19, repro,
2006-12-13,1.03, -1.11, -4.63, 2.10, 1.72, 7.70, repro,
2006-12-14,2.15, -2.73, 3.15, 2.06, 1.69, 7.63, repro,
2006-12-15,-1.82, -3.34, -6.74, 2.15, 1.79, 8.04, repro,
2006-12-16,0.58, -4.14, 1.21, 2.15, 1.76, 7.86, repro,
2006-12-17,1.23, -3.08, -7.36, 2.16, 1.77, 8.12, repro,
2006-12-18,1.50, -1.84, -6.27, 2.31, 1.95, 8.64, repro,
2006-12-19,2.60, -0.97, 3.05, 2.35, 2.10, 9.17, repro,
2006-12-20,1.60, -2.34, -0.85, 2.37, 2.05, 8.88, repro,
2006-12-21,2.66, -1.28, -3.92, 2.12, 1.80, 7.95, repro,
2006-12-22,-1.42, -4.58, -7.54, 2.31, 1.99, 8.78, repro,
2006-12-23,1.69, -1.63, -5.20, 2.20, 1.82, 8.37, repro,
2006-12-24,0.65, -1.63, -6.08, 2.05, 1.67, 7.59, repro,
2006-12-25,-0.16, -0.07, -10.37, 2.17, 1.81, 8.01, repro,
2006-12-26,-9.75, -6.42, -6.93, 2.14, 1.77, 7.98, repro,
2006-12-27,1.76, -3.26, -9.43, 2.16, 1.80, 8.12, repro,
2006-12-28,1.03, -3.20, -1.11, 2.47, 2.22, 9.52, repro,
2006-12-29,1.24, -3.17, -14.05, 2.28, 1.94, 8.49, repro,
2006-12-30,1.44, -2.41, -5.62, 2.14, 1.78, 7.98, repro,
2006-12-31,-1.11, -3.23, -6.61, 2.36, 1.95, 8.89, repro,
2007-01-01,0.14, -3.93, -7.99, 2.34, 1.93, 8.84, repro,
2007-01-02,1.04, -2.27, -4.19, 2.39, 1.97, 8.86, repro,
2007-01-03,-0.05, -3.29, -1.35, 2.09, 1.77, 7.84, repro,
2007-01-04,-3.41, -4.56, -0.60, 2.04, 1.71, 7.70, repro,
2007-01-05,2.24, -4.28, -2.68, 2.10, 1.76, 7.81, repro,
2007-01-06,2.50, -2.57, -8.82, 2.11, 1.75, 7.82, repro,
2007-01-07,2.73, -2.36, -8.55, 2.09, 1.69, 7.59, repro,
2007-01-08,1.49, -3.54, -11.05, 2.12, 1.73, 7.77, repro,
2007-01-09,1.92, -3.10, -8.60, 2.09, 1.68, 7.52, repro,
2007-01-10,-0.71, -2.67, -6.94, 2.13, 1.73, 7.79, repro,
2007-01-11,-2.01, -6.69, -17.14, 2.18, 1.74, 7.97, repro,
2007-01-12,1.86, -3.10, -6.64, 2.11, 1.68, 7.71, repro,
2007-01-13,1.78, -3.36, -14.54, 2.05, 1.66, 7.47, repro,
2007-01-14,1.90, -2.26, -13.79, 2.05, 1.68, 7.45, repro,
2007-01-15,0.98, -2.29, -13.60, 2.03, 1.63, 7.34, repro,
2007-01-16,-0.08, -2.71, -14.02, 2.15, 1.65, 7.63, repro,
2007-01-17,1.83, -2.63, -7.57, 2.14, 1.76, 7.78, repro,
2007-01-18,0.86, -2.85, -17.73, 2.18, 1.80, 7.99, repro,
2007-01-19,2.13, -2.37, -7.76, 2.09, 1.65, 7.61, repro,
2007-01-20,0.57, -2.54, -8.76, 2.12, 1.67, 7.70, repro,
2007-01-21,0.12, -2.14, -6.08, 2.04, 1.63, 7.36, repro,
2007-01-22,1.10, -3.60, -12.09, 2.08, 1.70, 7.54, repro,
2007-01-23,0.99, -2.74, -13.55, 2.06, 1.64, 7.42, repro,
2007-01-24,-0.18, -2.70, -12.12, 2.03, 1.63, 7.32, repro,
2007-01-25,0.45, -2.72, -14.87, 2.10, 1.67, 7.44, repro,
2007-01-26,1.10, -2.74, -8.64, 2.09, 1.68, 7.45, repro,
2007-01-27,0.73, -3.62, -7.41, 2.07, 1.68, 7.44, repro,
2007-01-28,0.73, -3.88, -15.82, 2.08, 1.69, 7.50, repro,
2007-01-29,1.70, -4.05, -12.84, 2.06, 1.66, 7.42, repro,
2007-01-30,0.23, -2.79, -4.69, 2.08, 1.68, 7.44, repro,
2007-01-31,-0.59, -4.05, -4.01, 2.07, 1.68, 7.40, repro,
2007-02-01,-0.41, -2.49, -3.16, 2.07, 1.66, 7.47, repro,
2007-02-02,-0.35, -2.95, -10.31, 2.08, 1.65, 7.52, repro,
2007-02-03,0.51, -3.60, -9.76, 2.12, 1.66, 7.54, repro,
2007-02-04,0.30, -3.29, -7.96, 2.06, 1.68, 7.40, repro,
2007-02-05,-0.22, -2.44, -8.37, 2.02, 1.62, 7.26, repro,
2007-02-06,-0.74, -3.57, -10.66, 2.07, 1.69, 7.46, repro,
2007-02-07,-2.08, -7.24, -9.30, 2.12, 1.75, 7.59, repro,
2007-02-08,-1.69, -3.65, -13.31, 2.13, 1.70, 7.67, repro,
2007-02-09,-7.02, -2.95, -9.33, 2.09, 1.73, 7.74, repro,
2007-02-10,-1.09, -1.59, -12.66, 2.11, 1.73, 7.58, repro,
2007-02-11,-0.21, -2.85, -7.30, 2.08, 1.68, 7.44, repro,
2007-02-12,-1.21, -3.54, -7.39, 2.14, 1.74, 7.72, repro,
2007-02-13,-1.41, -4.12, -12.95, 2.04, 1.62, 7.31, repro,
2007-02-14,0.16, -2.30, -10.44, 2.03, 1.62, 7.29, repro,
2007-02-15,-0.05, -3.14, -13.58, 2.04, 1.61, 7.24, repro,
2007-02-16,0.02, -2.29, -3.68, 2.11, 1.65, 7.48, repro,
2007-02-17,-0.55, -3.42, -8.03, 2.19, 1.79, 7.82, repro,
2007-02-18,-2.04, -4.19, -1.50, 2.06, 1.64, 7.41, repro,
2007-02-19,-1.05, -3.81, -1.21, 2.08, 1.67, 7.51, repro,
2007-02-20,-0.55, -3.13, 2.38, 2.06, 1.67, 7.37, repro,
2007-02-21,-6.18, -5.99, 1.83, 2.07, 1.62, 7.37, repro,
2007-02-22,-1.65, -5.92, -11.56, 2.07, 1.64, 7.41, repro,
2007-02-23,-1.37, -4.54, -3.26, 2.22, 1.76, 7.99, repro,
2007-02-24,-1.53, -4.14, -7.36, 2.04, 1.61, 7.29, repro,
2007-02-25,-6.90, -4.99, -20.93, 2.07, 1.67, 7.40, repro,
2007-03-30,-4.08, -7.15, 13.42, 7.81, 5.94, 28.71, repro,
2007-03-31,-1.13, -5.07, -3.50, 2.09, 1.64, 7.49, repro,
2007-04-01,-0.78, -5.27, 0.36, 2.06, 1.65, 7.43, repro,
2007-04-02,-2.28, -4.42, -0.66, 2.04, 1.61, 7.31, repro,
2007-04-03,0.24, -4.78, 2.64, 2.09, 1.65, 7.53, repro,
2007-04-04,-1.38, -6.43, -11.06, 2.14, 1.70, 7.71, repro,
2007-04-05,-1.68, -5.69, -4.40, 2.24, 1.81, 8.08, repro,
2007-04-06,-1.93, -4.96, -9.87, 2.10, 1.68, 7.63, repro,
2007-04-07,-2.69, -7.33, -6.21, 2.14, 1.74, 7.76, repro,
2007-04-08,-2.94, -7.72, 4.23, 2.08, 1.65, 7.46, repro,
2007-04-09,-2.26, -3.25, 7.25, 2.06, 1.62, 7.37, repro,
2007-04-10,-0.82, -6.92, -3.78, 2.12, 1.67, 7.56, repro,
2007-04-11,-4.29, -5.29, 0.55, 2.14, 1.69, 7.57, repro,
2007-04-12,-0.41, -4.43, -0.54, 2.06, 1.62, 7.35, repro,
2007-04-13,-0.48, -4.22, -4.32, 2.13, 1.72, 7.58, repro,
2007-04-14,-2.41, -5.84, -6.26, 2.10, 1.64, 7.48, repro,
2007-04-15,-2.32, -5.73, 0.98, 2.08, 1.62, 7.41, repro,
2007-04-16,-2.36, -5.32, -1.26, 2.06, 1.61, 7.34, repro,
2007-04-17,-3.38, -5.95, -10.57, 2.07, 1.62, 7.38, repro,
2007-04-18,-2.92, -7.96, -10.32, 2.12, 1.66, 7.51, repro,
2007-04-19,-3.97, -7.17, -6.75, 2.17, 1.73, 7.69, repro,
2007-04-20,-1.72, -7.06, -1.79, 2.15, 1.72, 7.67, repro,
2007-04-21,-0.95, -6.14, -0.74, 2.12, 1.65, 7.59, repro,
2007-04-22,-3.54, -4.40, 1.11, 2.10, 1.64, 7.48, repro,
2007-04-23,-2.05, -5.46, -5.83, 2.11, 1.64, 7.47, repro,
2007-04-24,-1.59, -5.81, -15.97, 2.13, 1.69, 7.56, repro,
2007-04-25,-0.33, -7.25, -6.70, 2.13, 1.71, 7.67, repro,
2007-04-26,-1.91, -6.55, -0.21, 2.10, 1.66, 7.45, repro,
2007-04-27,-1.40, -5.10, -0.54, 2.15, 1.68, 7.57, repro,
2007-04-28,-1.31, -6.31, -11.00, 2.06, 1.59, 7.28, repro,
2007-04-29,-3.32, -4.45, -13.84, 2.06, 1.60, 7.31, repro,
2007-04-30,-1.74, -6.59, -6.19, 2.10, 1.67, 7.55, repro,
2007-05-01,-3.23, -6.47, -10.21, 2.09, 1.62, 7.47, repro,
2007-05-02,-7.69, -7.94, -10.53, 2.18, 1.66, 7.74, repro,
2007-05-03,-1.64, -6.81, -4.08, 2.14, 1.60, 7.53, repro,
2007-05-04,-3.84, -4.17, -4.45, 2.11, 1.64, 7.45, repro,
2007-05-05,-1.98, -5.66, -2.30, 2.15, 1.69, 7.66, repro,
2007-05-06,-0.40, -5.62, -11.34, 2.09, 1.61, 7.41, repro,
2007-05-07,-2.61, -5.73, -5.72, 2.11, 1.65, 7.52, repro,
2007-05-08,-1.27, -5.53, -2.21, 2.09, 1.60, 7.42, repro,
2007-05-09,-1.85, -6.79, -4.06, 2.09, 1.59, 7.31, repro,
2007-05-10,-0.98, -6.64, -7.77, 2.19, 1.67, 7.75, repro,
2007-05-11,-1.57, -5.35, -8.91, 2.23, 1.73, 7.98, repro,
2007-05-12,-2.47, -5.37, -2.83, 2.13, 1.67, 7.61, repro,
2007-05-13,-1.38, -6.66, -5.42, 2.20, 1.70, 7.65, repro,
2007-05-14,-0.32, -6.06, -1.04, 2.12, 1.62, 7.43, repro,
2007-05-15,0.20, -6.28, -7.12, 2.09, 1.59, 7.27, repro,
2007-05-16,-1.62, -5.10, -7.34, 2.10, 1.60, 7.37, repro,
2007-05-17,-1.01, -4.69, -5.96, 2.15, 1.70, 7.70, repro,
2007-05-18,-2.40, -7.74, -9.53, 2.29, 1.81, 7.97, repro,
2007-05-19,-0.93, -5.24, -2.61, 2.12, 1.63, 7.43, repro,
2007-05-20,-0.93, -7.35, -1.08, 2.15, 1.69, 7.53, repro,
2007-05-21,-1.93, -7.06, -5.18, 2.10, 1.61, 7.32, repro,
2007-05-22,-3.20, -5.69, -4.31, 2.13, 1.66, 7.56, repro,
2007-05-23,-1.27, -5.59, -8.10, 2.14, 1.65, 7.54, repro,
2007-05-24,-1.34, -5.16, -2.64, 2.27, 1.79, 7.92, repro,
2007-05-25,-1.62, -5.32, -3.02, 2.10, 1.63, 7.36, repro,
2007-05-26,-1.27, -5.13, -5.39, 2.13, 1.63, 7.36, repro,
2007-05-27,-0.77, -6.76, -8.23, 2.12, 1.61, 7.36, repro,
2007-05-28,-2.59, -6.49, -3.79, 2.14, 1.67, 7.55, repro,
2007-05-29,-1.28, -6.50, -0.81, 2.17, 1.66, 7.46, repro,
2007-05-30,-1.17, -6.17, -4.50, 2.16, 1.64, 7.48, repro,
2007-05-31,-0.70, -5.14, -3.23, 2.18, 1.69, 7.53, repro,
2007-06-01,-1.26, -6.06, -2.53, 2.10, 1.60, 7.32, repro,
2007-06-02,-1.42, -6.06, -4.49, 2.12, 1.65, 7.49, repro,
2007-06-03,0.20, -5.44, -1.56, 2.17, 1.72, 7.67, repro,
2007-06-04,-0.60, -4.81, -4.33, 2.09, 1.63, 7.39, repro,
2007-06-05,-4.43, -6.57, -8.38, 2.15, 1.67, 7.63, repro,
2007-06-06,-2.55, -4.82, -1.95, 2.17, 1.68, 7.63, repro,
2007-06-07,-0.99, -6.90, -1.81, 2.10, 1.65, 7.45, repro,
2007-06-08,-0.81, -5.87, -3.34, 2.12, 1.66, 7.54, repro,
2007-06-09,-0.43, -5.56, -4.05, 2.14, 1.68, 7.56, repro,
2007-06-10,-0.69, -6.26, -1.63, 2.08, 1.63, 7.38, repro,
2007-06-11,-1.51, -4.33, -5.66, 2.18, 1.76, 7.72, repro,
2007-06-12,-1.16, -5.35, -1.68, 2.20, 1.72, 7.74, repro,
2007-06-13,-0.73, -5.34, -7.13, 2.23, 1.73, 7.70, repro,
2007-06-14,-0.34, -5.23, -12.17, 2.17, 1.73, 7.66, repro,
2007-06-15,-0.61, -5.15, -4.08, 2.09, 1.63, 7.41, repro,
2007-06-16,-2.41, -5.25, -6.68, 2.23, 1.76, 7.98, repro,
2007-06-17,-0.04, -5.51, -6.38, 2.11, 1.66, 7.47, repro,
2007-06-18,0.39, -4.35, 0.33, 2.14, 1.62, 7.44, repro,
2007-06-19,-0.92, -3.46, -9.84, 2.08, 1.61, 7.35, repro,
2007-06-20,-0.31, -5.03, -8.84, 2.15, 1.71, 7.59, repro,
2007-06-21,-0.27, -5.01, -8.97, 2.10, 1.63, 7.43, repro,
2007-06-22,-0.29, -3.02, -0.48, 2.11, 1.66, 7.50, repro,
2007-06-23,-0.90, -4.49, -6.58, 2.07, 1.59, 7.30, repro,
2007-06-24,-6.30, -5.47, -7.37, 2.10, 1.63, 7.50, repro,
2007-06-25,-0.49, -5.79, -8.73, 2.13, 1.65, 7.48, repro,
2007-06-26,-0.32, -5.23, -12.32, 2.13, 1.67, 7.56, repro,
2007-06-27,-0.57, -5.06, -4.17, 2.15, 1.69, 7.61, repro,
2007-06-28,-0.06, -3.64, -3.64, 2.08, 1.60, 7.36, repro,
2007-06-29,-0.08, -2.65, -2.29, 2.08, 1.59, 7.34, repro,
2007-06-30,-0.51, -4.68, -1.30, 2.07, 1.60, 7.38, repro,
2007-07-01,0.10, -3.98, -6.28, 2.07, 1.60, 7.36, repro,
2007-07-02,0.60, -5.38, -4.72, 2.11, 1.63, 7.50, repro,
2007-07-03,-0.62, -5.22, -2.39, 2.14, 1.72, 7.70, repro,
2007-07-04,-0.33, -4.09, -6.01, 2.08, 1.61, 7.46, repro,
2007-07-05,1.77, -3.99, -0.19, 2.11, 1.65, 7.51, repro,
2007-07-06,-0.23, -5.42, -2.55, 2.10, 1.68, 7.62, repro,
2007-07-07,-1.92, -4.21, -5.68, 2.09, 1.62, 7.45, repro,
2007-07-08,-1.46, -5.44, -0.22, 2.16, 1.71, 7.70, repro,
2007-07-09,0.10, -4.33, -5.34, 2.12, 1.68, 7.50, repro,
2007-07-10,-0.89, -4.93, -6.11, 2.13, 1.65, 7.43, repro,
2007-07-11,0.74, -3.71, -3.08, 2.07, 1.61, 7.37, repro,
2007-07-12,-0.95, -4.36, -0.42, 2.12, 1.68, 7.64, repro,
2007-07-13,-0.03, -4.67, -4.91, 2.11, 1.67, 7.57, repro,
2007-07-14,-0.13, -5.32, -7.76, 2.19, 1.79, 7.85, repro,
2007-07-15,-1.35, -3.20, -5.06, 2.12, 1.67, 7.57, repro,
2007-07-16,0.66, -5.09, -1.20, 2.10, 1.67, 7.53, repro,
2007-07-17,-0.49, -4.33, -11.92, 2.12, 1.68, 7.60, repro,
2007-07-18,-1.65, -10.97, -8.45, 2.12, 1.66, 7.56, repro,
2007-07-19,-0.63, -6.86, -6.81, 2.19, 1.77, 7.77, repro,
2007-07-20,0.45, -5.18, 3.73, 2.15, 1.75, 7.73, repro,
2007-07-21,0.65, -3.95, 0.51, 2.18, 1.74, 7.78, repro,
2007-07-22,-0.23, -4.92, -5.74, 2.12, 1.67, 7.60, repro,
2007-07-23,0.16, -5.75, -6.80, 2.20, 1.82, 7.97, repro,
2007-07-24,-0.96, -5.69, 1.07, 2.16, 1.71, 7.76, repro,
2007-07-25,0.19, -4.82, 6.56, 2.11, 1.69, 7.57, repro,
2007-07-26,1.36, -5.26, 0.13, 2.17, 1.75, 7.75, repro,
2007-07-27,2.32, -5.60, -0.10, 2.10, 1.61, 7.42, repro,
2007-07-28,1.55, -3.94, -3.57, 2.13, 1.69, 7.66, repro,
2007-07-29,1.28, -5.10, 1.81, 2.17, 1.75, 7.78, repro,
2007-07-30,-0.71, -5.67, 2.26, 2.13, 1.71, 7.66, repro,
2007-07-31,0.62, -5.52, -0.01, 2.23, 1.79, 7.80, repro,
2007-08-01,1.01, -5.34, 4.69, 2.08, 1.62, 7.38, repro,
2007-08-02,1.88, -4.63, 6.21, 2.09, 1.62, 7.41, repro,
2007-08-03,0.05, -6.12, 0.54, 2.12, 1.67, 7.54, repro,
2007-08-04,-1.23, -5.50, 0.57, 2.12, 1.68, 7.67, repro,
2007-08-05,-2.76, -7.38, 6.28, 2.19, 1.77, 7.74, repro,
2007-08-06,0.36, -3.51, 9.48, 2.17, 1.71, 7.64, repro,
2007-08-07,0.00, -5.67, -2.05, 2.11, 1.65, 7.52, repro,
2007-08-08,-0.92, -5.73, 2.31, 2.18, 1.73, 7.82, repro,
2007-08-09,-1.15, -4.90, 4.35, 2.11, 1.68, 7.57, repro,
2007-08-10,0.65, -4.93, 6.21, 2.13, 1.70, 7.58, repro,
2007-08-11,0.73, -3.95, -2.12, 2.15, 1.72, 7.55, repro,
2007-08-12,0.38, -3.77, -0.68, 2.10, 1.65, 7.41, repro,
2007-08-13,0.15, -4.94, -2.88, 2.06, 1.61, 7.34, repro,
2007-08-14,-1.14, -4.25, -6.37, 2.31, 1.88, 8.23, repro,
2007-08-15,0.41, -5.58, 0.43, 2.24, 1.80, 7.95, repro,
2007-08-16,-0.75, -6.52, 6.84, 2.30, 1.83, 8.08, repro,
2007-08-17,-2.16, -4.07, 9.70, 2.15, 1.66, 7.66, repro,
2007-08-18,-0.36, -4.46, 4.29, 2.22, 1.74, 8.05, repro,
2007-08-19,-3.73, -4.71, 5.17, 2.40, 1.91, 9.02, repro,
2007-08-20,1.16, -5.55, 5.64, 2.23, 1.77, 8.03, repro,
2007-08-21,-0.65, -5.42, 0.21, 2.17, 1.69, 7.74, repro,
2007-08-22,-0.42, -5.44, -4.07, 2.25, 1.71, 7.76, repro,
2007-08-23,0.34, -6.22, 4.46, 2.13, 1.64, 7.55, repro,
2007-08-24,-0.34, -4.97, 7.84, 2.22, 1.73, 7.91, repro,
2007-08-25,-2.03, -5.61, -2.16, 2.21, 1.76, 7.96, repro,
2007-08-26,-1.17, -5.50, 8.11, 2.23, 1.81, 8.06, repro,
2007-08-27,1.28, -6.45, -1.50, 2.35, 1.92, 8.34, repro,
2007-08-28,0.53, -5.62, 0.64, 2.18, 1.71, 7.80, repro,
2007-08-29,0.62, -4.45, -8.83, 2.25, 1.79, 8.06, repro,
2007-08-30,-1.40, -4.65, -1.75, 2.20, 1.72, 7.90, repro,
2007-08-31,-2.07, -3.56, -2.89, 2.19, 1.73, 7.88, repro,
2007-09-01,0.07, -6.33, 2.75, 2.29, 1.79, 8.05, repro,
2007-09-02,-0.24, -5.93, -0.53, 2.24, 1.73, 7.93, repro,
2007-09-03,-0.72, -6.46, -1.06, 2.17, 1.70, 7.76, repro,
2007-09-04,-3.42, -5.48, 2.25, 2.20, 1.71, 7.85, repro,
2007-09-05,-0.82, -5.83, 7.49, 2.17, 1.69, 7.72, repro,
2007-09-06,-0.73, -5.79, 2.27, 2.32, 1.95, 8.46, repro,
2007-09-07,0.97, -6.79, 7.12, 2.36, 1.92, 8.49, repro,
2007-09-08,0.98, -6.96, 4.91, 2.27, 1.79, 8.14, repro,
2007-09-09,-1.15, -6.39, -5.62, 2.28, 1.78, 8.16, repro,
2007-09-10,-0.09, -7.13, -2.47, 2.21, 1.70, 7.83, repro,
2007-09-11,-1.21, -7.21, 3.46, 2.20, 1.70, 7.77, repro,
2007-09-12,1.07, -6.47, 9.52, 2.30, 1.82, 8.02, repro,
2007-09-13,-2.89, -12.31, -3.97, 2.33, 1.75, 8.17, repro,
2007-09-14,-4.36, -8.68, 1.27, 2.31, 1.80, 8.19, repro,
2007-09-15,-1.72, -7.87, 0.69, 2.32, 1.75, 8.26, repro,
2007-09-16,-1.70, -7.10, -1.08, 2.18, 1.68, 7.71, repro,
2007-09-17,-0.32, -7.31, 7.69, 2.34, 1.83, 8.25, repro,
2007-09-18,-0.41, -5.99, -5.85, 2.24, 1.83, 8.14, repro,
2007-09-19,-2.39, -6.47, -0.74, 2.11, 1.61, 7.40, repro,
2007-09-20,-1.35, -7.99, 4.31, 2.17, 1.65, 7.62, repro,
2007-09-21,-1.14, -6.62, -1.80, 2.19, 1.67, 7.79, repro,
2007-09-22,-2.94, -7.59, 1.59, 2.16, 1.67, 7.63, repro,
2007-09-23,-1.90, -6.03, 8.51, 2.26, 1.79, 7.97, repro,
2007-09-24,-1.60, -5.76, 2.65, 2.45, 1.88, 8.82, repro,
2007-09-25,-3.10, -7.29, -5.65, 2.20, 1.66, 7.75, repro,
2007-09-26,0.36, -6.99, -0.54, 2.19, 1.68, 7.72, repro,
2007-09-27,-2.48, -6.21, 3.12, 2.16, 1.65, 7.61, repro,
2007-09-28,-2.65, -7.80, 5.38, 2.28, 1.83, 7.95, repro,
2007-09-29,-1.35, -6.90, 9.02, 2.17, 1.69, 7.71, repro,
2007-09-30,-2.56, -8.41, 4.82, 2.35, 1.90, 8.32, repro,
2007-10-01,-4.58, -11.18, 2.63, 2.21, 1.75, 7.95, repro,
2007-10-02,-1.84, -6.42, 6.40, 2.24, 1.77, 8.08, repro,
2007-10-03,-2.09, -6.79, 2.90, 2.21, 1.74, 7.80, repro,
2007-10-04,-3.76, -5.21, 5.03, 2.22, 1.80, 7.88, repro,
2007-10-05,-3.35, -8.20, 10.20, 2.27, 1.81, 8.22, repro,
2007-10-06,-3.24, -6.72, 6.76, 2.20, 1.73, 7.87, repro,
2007-10-07,-2.38, -6.80, -0.96, 2.24, 1.74, 7.96, repro,
2007-10-08,-2.68, -7.06, -0.34, 2.41, 1.81, 8.58, repro,
2007-10-09,-1.92, -6.66, 8.38, 2.42, 1.95, 8.48, repro,
2007-10-10,-5.85, -10.27, -12.09, 2.40, 1.84, 8.66, repro,
2007-10-11,-2.45, -6.90, 5.83, 2.22, 1.77, 7.99, repro,
2007-10-12,-3.41, -8.47, 9.45, 2.19, 1.73, 7.83, repro,
2007-10-13,-2.45, -5.51, 10.65, 2.12, 1.67, 7.59, repro,
2007-10-14,-1.50, -6.48, 5.33, 2.15, 1.71, 7.60, repro,
2007-10-15,-4.38, -8.43, 12.99, 2.14, 1.72, 7.69, repro,
2007-10-16,-4.20, -7.65, 11.31, 2.22, 1.76, 7.99, repro,
2007-10-17,-4.43, -8.95, 4.17, 2.12, 1.66, 7.58, repro,
2007-10-18,-3.08, -6.62, 10.11, 2.14, 1.71, 7.70, repro,
2007-10-19,-3.06, -7.68, 11.86, 2.15, 1.71, 7.63, repro,
2007-10-20,-6.59, -8.96, -2.95, 2.18, 1.78, 7.90, repro,
2007-10-21,-2.57, -6.25, 8.02, 2.15, 1.71, 7.76, repro,
2007-10-22,-2.88, -6.87, -1.60, 2.16, 1.69, 7.69, repro,
2007-10-23,-2.64, -5.56, -2.95, 2.20, 1.77, 7.91, repro,
2007-10-24,-3.00, -7.01, -0.51, 2.25, 1.83, 8.11, repro,
2007-10-25,-1.95, -6.42, 3.64, 2.15, 1.72, 7.67, repro,
2007-10-26,-4.57, -5.55, 6.93, 2.18, 1.77, 7.83, repro,
2007-10-27,-3.27, -8.01, -5.17, 2.16, 1.71, 7.81, repro,
2007-10-28,-3.06, -5.49, -3.62, 2.12, 1.66, 7.60, repro,
2007-10-29,-3.97, -7.46, 0.51, 2.12, 1.70, 7.65, repro,
2007-10-30,-3.01, -7.61, -0.03, 2.15, 1.72, 7.68, repro,
2007-10-31,-2.76, -6.37, 3.42, 2.18, 1.77, 7.82, repro,
2007-11-01,-3.21, -7.00, 2.09, 2.16, 1.72, 7.62, repro,
2007-11-02,-3.01, -7.46, -3.23, 2.07, 1.62, 7.31, repro,
2007-11-03,-3.23, -6.96, -3.15, 2.08, 1.62, 7.37, repro,
2007-11-04,-3.05, -7.37, -1.79, 2.14, 1.68, 7.49, repro,
2007-11-05,-2.73, -7.13, -4.09, 2.21, 1.75, 7.94, repro,
2007-11-06,-3.32, -6.94, -4.67, 2.16, 1.73, 7.78, repro,
2007-11-07,-3.20, -7.65, -6.89, 2.10, 1.64, 7.40, repro,
2007-11-08,-4.29, -7.59, -3.90, 2.11, 1.66, 7.43, repro,
2007-11-09,-6.67, -8.88, -4.44, 2.16, 1.68, 7.62, repro,
2007-11-10,-2.86, -8.21, 0.41, 2.12, 1.66, 7.46, repro,
2007-11-11,-5.00, -6.86, 5.39, 2.12, 1.69, 7.57, repro,
2007-11-12,-3.20, -7.47, -2.28, 2.11, 1.67, 7.52, repro,
2007-11-13,-3.38, -7.37, 1.01, 2.07, 1.63, 7.38, repro,
2007-11-14,-3.18, -7.72, -3.06, 2.09, 1.64, 7.47, repro,
2007-11-15,-2.51, -7.83, -0.24, 2.15, 1.69, 7.58, repro,
2007-11-16,-2.22, -7.23, -1.96, 2.17, 1.75, 7.88, repro,
2007-11-17,-1.79, -8.50, -5.67, 2.12, 1.67, 7.47, repro,
2007-11-18,-1.77, -6.94, -1.83, 2.10, 1.65, 7.47, repro,
2007-11-19,-7.00, -8.97, -10.25, 2.07, 1.63, 7.38, repro,
2007-11-20,-4.11, -9.86, -3.55, 2.14, 1.73, 7.65, repro,
2007-11-21,-3.00, -8.50, -4.11, 2.17, 1.73, 7.77, repro,
2007-11-22,-1.26, -7.75, -5.03, 2.13, 1.68, 7.48, repro,
2007-11-23,-2.86, -8.28, -0.73, 2.19, 1.78, 7.77, repro,
2007-11-24,-2.13, -7.33, -2.20, 2.22, 1.79, 7.75, repro,
2007-11-25,-2.61, -8.20, 2.44, 2.26, 1.88, 8.00, repro,
2007-11-26,-1.58, -10.04, -9.81, 2.36, 1.92, 8.49, repro,
2007-11-27,-2.47, -7.78, -3.24, 2.20, 1.81, 7.85, repro,
2007-11-28,-1.78, -7.37, -3.53, 2.22, 1.75, 7.79, repro,
2007-11-29,-3.24, -7.98, -4.11, 2.23, 1.72, 7.87, repro,
2007-11-30,-5.84, -11.54, 0.45, 2.20, 1.77, 7.80, repro,
2007-12-01,-3.85, -7.48, 5.76, 2.25, 1.88, 8.04, repro,
2007-12-02,-4.22, -6.93, -2.85, 2.28, 1.79, 8.24, repro,
2007-12-03,-5.39, -4.39, -10.98, 2.37, 1.88, 8.54, repro,
2007-12-04,-2.37, -8.28, -5.05, 2.34, 1.96, 8.59, repro,
2007-12-05,-2.31, -6.99, -9.81, 2.36, 1.94, 8.82, repro,
2007-12-06,-6.82, -8.33, -0.14, 2.39, 1.95, 8.81, repro,
2007-12-07,-6.13, -9.52, -5.41, 2.33, 1.89, 8.44, repro,
2007-12-08,-3.81, -8.55, 0.46, 2.29, 1.83, 8.14, repro,
2007-12-09,-2.11, -8.88, -6.17, 2.55, 2.19, 9.35, repro,
2007-12-10,-1.90, -7.06, -1.14, 2.20, 1.80, 7.87, repro,
2007-12-11,-2.06, -7.78, 1.44, 2.16, 1.75, 7.71, repro,
2007-12-12,-2.00, -7.52, -8.06, 2.35, 1.82, 8.36, repro,
2007-12-13,-3.74, -8.89, -11.40, 2.26, 1.76, 7.93, repro,
2007-12-14,-3.68, -7.99, -6.13, 2.15, 1.65, 7.65, repro,
2007-12-15,-4.84, -8.08, -3.88, 2.17, 1.72, 7.82, repro,
2007-12-16,-4.35, -7.67, 2.82, 2.14, 1.66, 7.65, repro,
2007-12-17,-3.07, -8.53, -1.25, 2.20, 1.71, 7.73, repro,
2007-12-18,-3.78, -7.87, 1.28, 2.19, 1.67, 7.69, repro,
2007-12-19,-5.57, -8.30, 6.19, 2.18, 1.70, 7.77, repro,
2007-12-20,-5.24, -8.88, -2.93, 2.17, 1.70, 7.79, repro,
2007-12-21,-4.49, -8.22, -3.54, 2.23, 1.73, 7.90, repro,
2007-12-22,-3.60, -9.18, -7.96, 2.19, 1.69, 7.75, repro,
2007-12-23,-4.07, -8.91, -6.74, 2.20, 1.71, 7.79, repro,
2007-12-24,-4.58, -9.99, 1.78, 2.28, 1.79, 7.91, repro,
2007-12-25,-3.73, -8.48, -0.58, 2.21, 1.74, 7.82, repro,
2007-12-26,-5.05, -9.14, -2.11, 2.20, 1.72, 7.84, repro,
2007-12-27,-2.96, -8.12, 6.85, 2.15, 1.67, 7.64, repro,
2007-12-28,-5.66, -8.48, -0.29, 2.21, 1.71, 7.79, repro,
2007-12-29,-5.12, -7.77, 2.26, 2.26, 1.77, 8.05, repro,
2007-12-30,-3.44, -8.27, -0.51, 2.21, 1.71, 7.81, repro,
2007-12-31,-3.30, -8.31, -9.41, 2.14, 1.62, 7.51, repro,
2008-01-01,-3.15, -8.12, -8.40, 2.13, 1.63, 7.51, repro,
2008-01-02,-3.48, -8.94, -8.63, 2.17, 1.67, 7.64, repro,
2008-01-03,-5.69, -13.72, -0.21, 2.17, 1.66, 7.64, repro,
2008-01-04,-11.00, -11.86, -0.55, 2.13, 1.61, 7.49, repro,
2008-01-05,-6.58, -10.93, 1.25, 2.19, 1.73, 7.74, repro,
2008-01-06,-7.71, -10.16, -2.17, 2.16, 1.68, 7.62, repro,
2008-01-07,-6.04, -9.50, 4.99, 2.19, 1.64, 7.70, repro,
2008-01-08,-5.41, -8.94, -10.35, 2.23, 1.66, 7.79, repro,
2008-01-09,-4.44, -8.88, -4.90, 2.18, 1.64, 7.78, repro,
2008-01-10,-4.03, -10.58, -3.38, 2.12, 1.63, 7.55, repro,
2008-01-11,-5.35, -8.36, -1.64, 2.14, 1.64, 7.55, repro,
2008-01-12,-3.59, -8.11, -3.76, 2.11, 1.63, 7.44, repro,
2008-01-13,-3.76, -8.78, -12.20, 2.12, 1.63, 7.46, repro,
2008-01-14,-3.47, -9.97, -9.13, 2.20, 1.74, 7.81, repro,
2008-01-15,-3.05, -9.58, -3.21, 2.21, 1.79, 7.95, repro,
2008-01-16,-4.05, -10.04, -7.40, 2.27, 1.76, 8.17, repro,
2008-01-17,-3.47, -8.69, -4.89, 2.19, 1.66, 7.72, repro,
2008-01-18,-3.18, -8.70, -6.98, 2.15, 1.67, 7.67, repro,
2008-01-19,-3.69, -8.29, -10.70, 2.15, 1.66, 7.51, repro,
2008-01-20,-7.11, -9.82, -8.30, 2.17, 1.69, 7.66, repro,
2008-01-21,-5.30, -9.55, -3.34, 2.20, 1.75, 7.87, repro,
2008-01-22,-5.06, -9.70, -7.83, 2.14, 1.68, 7.59, repro,
2008-01-23,-4.39, -9.69, -11.93, 2.17, 1.69, 7.79, repro,
2008-01-24,-5.13, -9.73, 0.76, 2.18, 1.75, 7.95, repro,
2008-01-25,-3.62, -10.83, -6.62, 2.11, 1.62, 7.42, repro,
2008-01-26,-6.40, -12.00, -8.08, 2.17, 1.74, 7.81, repro,
2008-01-27,-5.99, -11.65, -3.05, 2.11, 1.65, 7.55, repro,
2008-01-28,-6.64, -11.37, -1.00, 2.15, 1.71, 7.69, repro,
2008-01-29,-7.16, -8.61, 0.81, 2.30, 1.81, 8.09, repro,
2008-01-30,-3.03, -9.57, -11.40, 2.69, 2.11, 9.43, repro,
2008-01-31,-5.50, -12.60, -5.12, 2.11, 1.62, 7.44, repro,
2008-02-01,-6.70, -10.15, -20.72, 2.20, 1.78, 7.96, repro,
2008-02-02,-4.99, -10.06, -8.95, 2.16, 1.72, 7.79, repro,
2008-02-03,-7.53, -13.05, -13.34, 2.18, 1.66, 7.69, repro,
2008-02-04,-3.94, -8.72, -5.97, 2.15, 1.72, 7.76, repro,
2008-02-05,-2.95, -8.55, -6.60, 2.17, 1.72, 7.72, repro,
2008-02-06,-4.58, -9.82, -9.94, 2.19, 1.79, 7.98, repro,
2008-02-07,-4.73, -8.70, -4.62, 2.31, 1.86, 8.38, repro,
2008-02-08,-5.22, -10.06, -8.79, 2.13, 1.64, 7.54, repro,
2008-02-09,-4.83, -8.99, -13.09, 2.19, 1.76, 7.86, repro,
2008-02-10,-4.97, -10.04, -8.01, 2.10, 1.61, 7.40, repro,